TimeCST,TemperatureF,Dew PointF,Humidity,Sea Level PressureIn,VisibilityMPH,Wind Direction,Wind SpeedMPH,Gust SpeedMPH,PrecipitationIn,Events,Conditions,WindDirDegrees,DateUTC
12:54 AM,39.9,33.1,77,29.89,10.0,West,9.2,-,N/A,,Clear,260,2012-12-04 06:54:00
1:54 AM,37.9,32.0,79,29.90,10.0,West,10.4,-,N/A,,Clear,260,2012-12-04 07:54:00
2:54 AM,37.0,30.0,76,29.91,10.0,West,9.2,-,N/A,,Clear,260,2012-12-04 08:54:00
3:54 AM,37.0,30.0,76,29.91,10.0,WSW,8.1,-,N/A,,Clear,250,2012-12-04 09:54:00
4:54 AM,37.9,28.0,68,29.93,10.0,West,10.4,-,N/A,,Clear,260,2012-12-04 10:54:00
5:54 AM,37.0,28.0,70,29.96,10.0,WSW,9.2,19.6,N/A,,Clear,250,2012-12-04 11:54:00
6:54 AM,35.1,27.0,72,30.00,10.0,West,8.1,-,N/A,,Clear,260,2012-12-04 12:54:00
7:54 AM,35.1,26.1,70,30.02,10.0,West,9.2,-,N/A,,Clear,270,2012-12-04 13:54:00
8:54 AM,36.0,26.1,67,30.04,10.0,West,13.8,-,N/A,,Clear,280,2012-12-04 14:54:00
9:54 AM,36.0,25.0,64,30.05,10.0,West,19.6,25.3,N/A,,Clear,270,2012-12-04 15:54:00
10:54 AM,37.9,24.1,57,30.06,10.0,West,17.3,25.3,N/A,,Clear,280,2012-12-04 16:54:00
11:54 AM,39.0,24.1,55,30.05,10.0,West,15.0,23.0,N/A,,Clear,280,2012-12-04 17:54:00
12:54 PM,37.9,23.0,55,30.07,10.0,WNW,19.6,25.3,N/A,,Clear,290,2012-12-04 18:54:00
1:54 PM,37.0,21.9,54,30.09,10.0,WNW,16.1,27.6,N/A,,Clear,300,2012-12-04 19:54:00
2:54 PM,34.0,19.9,56,30.13,10.0,WNW,15.0,24.2,N/A,,Clear,300,2012-12-04 20:54:00
3:54 PM,30.9,18.0,59,30.18,10.0,NW,16.1,27.6,N/A,,Clear,310,2012-12-04 21:54:00
4:54 PM,28.0,16.0,61,30.21,10.0,WNW,12.7,21.9,N/A,,Clear,300,2012-12-04 22:54:00
5:54 PM,27.0,14.0,58,30.24,10.0,NW,12.7,-,N/A,,Clear,310,2012-12-04 23:54:00
6:54 PM,26.1,12.9,58,30.27,10.0,NW,16.1,-,N/A,,Clear,310,2012-12-05 00:54:00
7:54 PM,24.1,10.9,57,30.28,10.0,NW,13.8,-,N/A,,Clear,320,2012-12-05 01:54:00
8:54 PM,23.0,10.9,60,30.31,10.0,NNW,12.7,-,N/A,,Clear,330,2012-12-05 02:54:00
9:54 PM,21.9,10.9,63,30.33,10.0,North,9.2,-,N/A,,Clear,350,2012-12-05 03:54:00
10:54 PM,19.9,10.9,68,30.36,10.0,NNW,6.9,-,N/A,,Clear,340,2012-12-05 04:54:00
11:54 PM,19.9,10.0,65,30.38,10.0,North,4.6,-,N/A,,Clear,350,2012-12-05 05:54:00